Time,TemperatureF,DewpointF,PressureIn,WindDirection,WindDirectionDegrees,WindSpeedMPH,WindSpeedGustMPH,Humidity,HourlyPrecipIn,Conditions,Clouds,dailyrainin,SoftwareType,DateUTC
2013-06-15 02:23:00,42.0,-99.9,30.10,North,-999,-999.0,-999.0,-999,-99.99,,,-99.99,,2013-06-15 10:23:00,
2013-06-15 02:34:00,41.0,-99.9,30.10,North,-999,-999.0,-999.0,-999,-99.99,,,-99.99,,2013-06-15 10:34:00,
2013-06-15 06:02:00,40.0,-99.9,30.14,North,-999,-999.0,-999.0,-999,-99.99,,,-99.99,,2013-06-15 14:02:00,
2013-06-15 07:02:00,45.0,-99.9,30.15,North,-999,-999.0,-999.0,-999,-99.99,,,-99.99,,2013-06-15 15:02:00,
2013-06-15 08:22:00,53.0,-99.9,30.15,North,-999,-999.0,-999.0,-999,-99.99,,,-99.99,,2013-06-15 16:22:00,
2013-06-15 08:33:00,55.0,-99.9,30.15,North,-999,-999.0,-999.0,-999,-99.99,,,-99.99,,2013-06-15 16:33:00,
2013-06-15 08:43:00,55.0,-99.9,30.15,North,-999,-999.0,-999.0,-999,-99.99,,,-99.99,,2013-06-15 16:43:00,
2013-06-15 08:54:00,60.0,-99.9,30.15,North,-999,-999.0,-999.0,-999,-99.99,,,-99.99,,2013-06-15 16:54:00,
2013-06-15 09:02:00,60.0,-99.9,30.15,North,-999,-999.0,-999.0,-999,-99.99,,,-99.99,,2013-06-15 17:02:00,
2013-06-15 09:12:00,63.0,-99.9,30.15,North,-999,-999.0,-999.0,-999,-99.99,,,-99.99,,2013-06-15 17:12:00,
2013-06-15 09:22:00,63.0,-99.9,30.15,North,-999,-999.0,-999.0,-999,-99.99,,,-99.99,,2013-06-15 17:22:00,
2013-06-15 09:32:00,63.0,-99.9,30.15,North,-999,-999.0,-999.0,-999,-99.99,,,-99.99,,2013-06-15 17:32:00,
2013-06-15 09:43:00,65.0,-99.9,30.16,North,-999,-999.0,-999.0,-999,-99.99,,,-99.99,,2013-06-15 17:43:00,
2013-06-15 09:52:00,65.0,-99.9,30.16,North,-999,-999.0,-999.0,-999,-99.99,,,-99.99,,2013-06-15 17:52:00,
2013-06-15 10:01:00,65.0,-99.9,30.16,North,-999,-999.0,-999.0,-999,-99.99,,,-99.99,,2013-06-15 18:01:00,
2013-06-15 10:12:00,65.0,-99.9,30.16,North,-999,-999.0,-999.0,-999,-99.99,,,-99.99,,2013-06-15 18:12:00,
2013-06-15 10:22:00,68.0,-99.9,30.16,North,-999,-999.0,-999.0,-999,-99.99,,,-99.99,,2013-06-15 18:22:00,
2013-06-15 10:33:00,68.0,-99.9,30.16,North,-999,-999.0,-999.0,-999,-99.99,,,-99.99,,2013-06-15 18:33:00,
2013-06-15 10:43:00,69.0,-99.9,30.16,North,-999,-999.0,-999.0,-999,-99.99,,,-99.99,,2013-06-15 18:43:00,
2013-06-15 10:53:00,69.0,-99.9,30.16,North,-999,-999.0,-999.0,-999,-99.99,,,-99.99,,2013-06-15 18:53:00,
2013-06-15 11:02:00,69.0,-99.9,30.16,North,-999,-999.0,-999.0,-999,-99.99,,,-99.99,,2013-06-15 19:02:00,
2013-06-15 11:12:00,69.0,-99.9,30.16,North,-999,-999.0,-999.0,-999,-99.99,,,-99.99,,2013-06-15 19:12:00,
2013-06-15 11:22:00,71.0,-99.9,30.15,North,-999,-999.0,-999.0,-999,-99.99,,,-99.99,,2013-06-15 19:22:00,
2013-06-15 11:33:00,71.0,-99.9,30.15,North,-999,-999.0,-999.0,-999,-99.99,,,-99.99,,2013-06-15 19:33:00,
2013-06-15 11:43:00,71.0,-99.9,30.15,North,-999,-999.0,-999.0,-999,-99.99,,,-99.99,,2013-06-15 19:43:00,
2013-06-15 11:53:00,72.0,-99.9,30.14,North,-999,-999.0,-999.0,-999,-99.99,,,-99.99,,2013-06-15 19:53:00,
2013-06-15 12:02:00,72.0,-99.9,30.14,North,-999,-999.0,-999.0,-999,-99.99,,,-99.99,,2013-06-15 20:02:00,
2013-06-15 12:12:00,72.0,-99.9,30.14,North,-999,-999.0,-999.0,-999,-99.99,,,-99.99,,2013-06-15 20:12:00,
2013-06-15 12:22:00,72.0,-99.9,30.14,North,-999,-999.0,-999.0,-999,-99.99,,,-99.99,,2013-06-15 20:22:00,
2013-06-15 12:33:00,72.0,-99.9,30.14,North,-999,-999.0,-999.0,-999,-99.99,,,-99.99,,2013-06-15 20:33:00,
2013-06-15 13:02:00,80.0,-99.9,30.13,North,-999,-999.0,-999.0,-999,-99.99,,,-99.99,,2013-06-15 21:02:00,
2013-06-15 13:12:00,80.0,-99.9,30.13,North,-999,-999.0,-999.0,-999,-99.99,,,-99.99,,2013-06-15 21:12:00,
2013-06-15 13:22:00,80.0,-99.9,30.13,North,-999,-999.0,-999.0,-999,-99.99,,,-99.99,,2013-06-15 21:22:00,
2013-06-15 13:34:00,78.0,-99.9,30.12,North,-999,-999.0,-999.0,-999,-99.99,,,-99.99,,2013-06-15 21:34:00,
2013-06-15 13:42:00,78.0,-99.9,30.12,North,-999,-999.0,-999.0,-999,-99.99,,,-99.99,,2013-06-15 21:42:00,
2013-06-15 13:53:00,78.0,-99.9,30.12,North,-999,-999.0,-999.0,-999,-99.99,,,-99.99,,2013-06-15 21:53:00,
2013-06-15 14:02:00,82.0,-99.9,30.11,North,-999,-999.0,-999.0,-999,-99.99,,,-99.99,,2013-06-15 22:02:00,
2013-06-15 14:11:00,82.0,-99.9,30.11,North,-999,-999.0,-999.0,-999,-99.99,,,-99.99,,2013-06-15 22:11:00,
2013-06-15 14:22:00,81.0,-99.9,30.11,North,-999,-999.0,-999.0,-999,-99.99,,,-99.99,,2013-06-15 22:22:00,
2013-06-15 14:33:00,81.0,-99.9,30.11,North,-999,-999.0,-999.0,-999,-99.99,,,-99.99,,2013-06-15 22:33:00,
2013-06-15 14:43:00,81.0,-99.9,30.11,North,-999,-999.0,-999.0,-999,-99.99,,,-99.99,,2013-06-15 22:43:00,
2013-06-15 14:53:00,81.0,-99.9,30.11,North,-999,-999.0,-999.0,-999,-99.99,,,-99.99,,2013-06-15 22:53:00,
2013-06-15 15:02:00,81.0,-99.9,30.11,North,-999,-999.0,-999.0,-999,-99.99,,,-99.99,,2013-06-15 23:02:00,
2013-06-15 15:12:00,82.0,-99.9,30.10,North,-999,-999.0,-999.0,-999,-99.99,,,-99.99,,2013-06-15 23:12:00,
2013-06-15 15:22:00,82.0,-99.9,30.10,North,-999,-999.0,-999.0,-999,-99.99,,,-99.99,,2013-06-15 23:22:00,
2013-06-15 15:33:00,82.0,-99.9,30.10,North,-999,-999.0,-999.0,-999,-99.99,,,-99.99,,2013-06-15 23:33:00,
2013-06-15 15:43:00,82.0,-99.9,30.10,North,-999,-999.0,-999.0,-999,-99.99,,,-99.99,,2013-06-15 23:43:00,
2013-06-15 15:53:00,83.0,-99.9,30.09,North,-999,-999.0,-999.0,-999,-99.99,,,-99.99,,2013-06-15 23:53:00,
2013-06-15 16:02:00,83.0,-99.9,30.09,North,-999,-999.0,-999.0,-999,-99.99,,,-99.99,,2013-06-16 00:02:00,
2013-06-15 16:12:00,83.0,-99.9,30.09,North,-999,-999.0,-999.0,-999,-99.99,,,-99.99,,2013-06-16 00:12:00,
2013-06-15 16:22:00,83.0,-99.9,30.09,North,-999,-999.0,-999.0,-999,-99.99,,,-99.99,,2013-06-16 00:22:00,
2013-06-15 16:34:00,84.0,-99.9,30.08,North,-999,-999.0,-999.0,-999,-99.99,,,-99.99,,2013-06-16 00:34:00,
2013-06-15 16:43:00,84.0,-99.9,30.08,North,-999,-999.0,-999.0,-999,-99.99,,,-99.99,,2013-06-16 00:43:00,
2013-06-15 16:53:00,85.0,-99.9,30.08,North,-999,-999.0,-999.0,-999,-99.99,,,-99.99,,2013-06-16 00:53:00,
2013-06-15 17:02:00,82.0,-99.9,30.08,North,-999,-999.0,-999.0,-999,-99.99,,,-99.99,,2013-06-16 01:02:00,
2013-06-15 17:12:00,82.0,-99.9,30.08,North,-999,-999.0,-999.0,-999,-99.99,,,-99.99,,2013-06-16 01:12:00,
2013-06-15 17:22:00,82.0,-99.9,30.08,North,-999,-999.0,-999.0,-999,-99.99,,,-99.99,,2013-06-16 01:22:00,
2013-06-15 17:33:00,84.0,-99.9,30.07,North,-999,-999.0,-999.0,-999,-99.99,,,-99.99,,2013-06-16 01:33:00,
2013-06-15 17:43:00,84.0,-99.9,30.07,North,-999,-999.0,-999.0,-999,-99.99,,,-99.99,,2013-06-16 01:43:00,
2013-06-15 17:53:00,84.0,-99.9,30.07,North,-999,-999.0,-999.0,-999,-99.99,,,-99.99,,2013-06-16 01:53:00,
2013-06-15 18:02:00,84.0,-99.9,30.06,North,-999,-999.0,-999.0,-999,-99.99,,,-99.99,,2013-06-16 02:02:00,
2013-06-15 18:12:00,84.0,-99.9,30.06,North,-999,-999.0,-999.0,-999,-99.99,,,-99.99,,2013-06-16 02:12:00,
2013-06-15 18:22:00,84.0,-99.9,30.06,North,-999,-999.0,-999.0,-999,-99.99,,,-99.99,,2013-06-16 02:22:00,
2013-06-15 18:33:00,84.0,-99.9,30.06,North,-999,-999.0,-999.0,-999,-99.99,,,-99.99,,2013-06-16 02:33:00,
2013-06-15 18:43:00,83.0,-99.9,30.06,North,-999,-999.0,-999.0,-999,-99.99,,,-99.99,,2013-06-16 02:43:00,
2013-06-15 18:53:00,86.0,-99.9,30.06,North,-999,-999.0,-999.0,-999,-99.99,,,-99.99,,2013-06-16 02:53:00,
2013-06-15 19:02:00,86.0,-99.9,30.06,North,-999,-999.0,-999.0,-999,-99.99,,,-99.99,,2013-06-16 03:02:00,
2013-06-15 19:12:00,84.0,-99.9,30.06,North,-999,-999.0,-999.0,-999,-99.99,,,-99.99,,2013-06-16 03:12:00,
2013-06-15 19:22:00,84.0,-99.9,30.06,North,-999,-999.0,-999.0,-999,-99.99,,,-99.99,,2013-06-16 03:22:00,
2013-06-15 19:34:00,86.0,-99.9,30.06,North,-999,-999.0,-999.0,-999,-99.99,,,-99.99,,2013-06-16 03:34:00,
2013-06-15 19:43:00,86.0,-99.9,30.06,North,-999,-999.0,-999.0,-999,-99.99,,,-99.99,,2013-06-16 03:43:00,
2013-06-15 19:53:00,82.0,-99.9,30.06,North,-999,-999.0,-999.0,-999,-99.99,,,-99.99,,2013-06-16 03:53:00,
2013-06-15 20:02:00,82.0,-99.9,30.06,North,-999,-999.0,-999.0,-999,-99.99,,,-99.99,,2013-06-16 04:02:00,
2013-06-15 20:12:00,81.0,-99.9,30.06,North,-999,-999.0,-999.0,-999,-99.99,,,-99.99,,2013-06-16 04:12:00,
2013-06-15 20:23:00,81.0,-99.9,30.06,North,-999,-999.0,-999.0,-999,-99.99,,,-99.99,,2013-06-16 04:23:00,
2013-06-15 20:34:00,81.0,-99.9,30.06,North,-999,-999.0,-999.0,-999,-99.99,,,-99.99,,2013-06-16 04:34:00,
2013-06-15 20:43:00,81.0,-99.9,30.06,North,-999,-999.0,-999.0,-999,-99.99,,,-99.99,,2013-06-16 04:43:00,
2013-06-15 20:53:00,81.0,-99.9,30.06,North,-999,-999.0,-999.0,-999,-99.99,,,-99.99,,2013-06-16 04:53:00,
2013-06-15 21:02:00,81.0,-99.9,30.06,North,-999,-999.0,-999.0,-999,-99.99,,,-99.99,,2013-06-16 05:02:00,
2013-06-15 21:12:00,80.0,-99.9,30.06,North,-999,-999.0,-999.0,-999,-99.99,,,-99.99,,2013-06-16 05:12:00,
2013-06-15 21:22:00,79.0,-99.9,30.06,North,-999,-999.0,-999.0,-999,-99.99,,,-99.99,,2013-06-16 05:22:00,
2013-06-15 21:34:00,79.0,-99.9,30.06,North,-999,-999.0,-999.0,-999,-99.99,,,-99.99,,2013-06-16 05:34:00,
2013-06-15 21:43:00,77.0,-99.9,30.06,North,-999,-999.0,-999.0,-999,-99.99,,,-99.99,,2013-06-16 05:43:00,
2013-06-15 21:52:00,75.0,-99.9,30.06,North,-999,-999.0,-999.0,-999,-99.99,,,-99.99,,2013-06-16 05:52:00,
2013-06-15 22:02:00,73.0,-99.9,30.06,North,-999,-999.0,-999.0,-999,-99.99,,,-99.99,,2013-06-16 06:02:00,
2013-06-15 22:12:00,73.0,-99.9,30.06,North,-999,-999.0,-999.0,-999,-99.99,,,-99.99,,2013-06-16 06:12:00,
2013-06-15 22:23:00,73.0,-99.9,30.06,North,-999,-999.0,-999.0,-999,-99.99,,,-99.99,,2013-06-16 06:23:00,
2013-06-15 22:33:00,73.0,-99.9,30.06,North,-999,-999.0,-999.0,-999,-99.99,,,-99.99,,2013-06-16 06:33:00,
2013-06-15 22:43:00,73.0,-99.9,30.06,North,-999,-999.0,-999.0,-999,-99.99,,,-99.99,,2013-06-16 06:43:00,
2013-06-15 23:33:00,64.0,-99.9,30.07,North,-999,-999.0,-999.0,-999,-99.99,,,-99.99,,2013-06-16 07:33:00,